Location: Newark
(13.6797°N, 8.5297°E)
Time: 21:09:58
(UTC+00:00)

LightSail 2 - Pass Details

Date: 09 December 2019
Orbit: 704 x 719 km, 24.0° (Epoch: 23 January)

Event Time Altitude Azimuth Distance (km) Brightness Sun altitude
Rises 18:44:49 0° 294° (WNW) 3,090 9.1 -25.0°
Reaches altitude 10° 18:47:16 10° 297° (WNW) 2,168 8.2 -25.5°
Enters shadow 18:51:32 56° 331° (NNW) 831 5.4 -26.5°
